Aérodrome :
LOGIN :

S'inscrire | Disclaimer

   EN    FR    IT 

 










Légende :    VFR   VFR Marginal   IFR   IFR Intensif   IFR Très Intensif
Visi : 
Plafond : 
>= 8 km
>= 3000ft
5 à 8 km
1000 à 3000 ft
1500m à 5 km
500 à 1000 ft
800 à 1500m
200 à 500 ft
< 800m
< 200 ft
Symboles :   Orages  Brouillard  Fortes neiges  Fortes précipitations  Vent > 20 kt
SIGMETs :   Divers  Orages  Givrage  Turbulence  Onde Orograph.  Cendres Volcan.







- Altitude de l'aérodrome : 300 ft
- Code IATA : MLA


LMML - Malta Luqa

DERNIER METAR :
  • 280945Z 21009KT 180V250 CAVOK 32/19 Q1012 NOSIG

METARs EXPIRÉS :
  • 280915Z 20007KT 170V240 CAVOK 32/18 Q1012 NOSIG
  • 280845Z 21007KT 180V250 CAVOK 31/18 Q1012 NOSIG
  • 280815Z 21008KT 170V250 CAVOK 31/18 Q1011 NOSIG
  • 280745Z 22009KT 190V250 CAVOK 30/17 Q1011 NOSIG
  • 280715Z 21007KT CAVOK 30/17 Q1012 NOSIG

TAF TAF LMML
Valide du 28 à 06h jusqu'au 29 à 06h UTC


280500Z 2806/2906 19010KT CAVOK
PROB40 2821/2823 5000 BR
PROB40 2823/2905 0100 FG BKN001
Pas de NOTAMs connus pour ce terrain.



MET'MAP, la Météo Aéronautique d'un coup d'oeil ! - Copyright ORBIFLY Décembre 2007 - Disclaimer

ORBIFLY MET'MAP TEAM :

Programmation & Développement : Alexandra Zaïnal
Conception & Développement : Baudouin d'Aumeries
Co-Programmation & Développement : Marc-Olivier Méhu
Soutien technique & logistique : Manuel Goepfert

Contact : metmap@orbifly.com




SOURCES & CREDITS :

   NOAA